This is the latest recevied weather packets stored in our database for station/object N8QQQ. If no packets are shown the sender has not sent any weather packets the latest 10 day(s).
| Time | Temp. | Humidity | Pressure | Rain* | Wind** | Luminosity | Snow |
|---|---|---|---|---|---|---|---|
| 1778070901 | 0.56° C | 70% | 1011.2 hPa | 0 mm | - | 37 W/m² | - |
| 1778070598 | 0.56° C | 71% | 1011.2 hPa | 0 mm | - | 36 W/m² | - |
| 1778070295 | 0.56° C | 71% | 1011 hPa | 0 mm | - | 32 W/m² | - |
| 1778069993 | 0.56° C | 72% | 1011.1 hPa | 0 mm | - | 29 W/m² | - |
| 1778069690 | 0.56° C | 73% | 1011.1 hPa | 0 mm | - | 27 W/m² | - |
| 1778069387 | 0.56° C | 73% | 1011.1 hPa | 0 mm | - | 29 W/m² | - |
| 1778069084 | 0° C | 73% | 1010.9 hPa | 0 mm | - | 27 W/m² | - |
| 1778068781 | 0° C | 72% | 1011 hPa | 0 mm | - | 21 W/m² | - |
| 1778068479 | 0° C | 73% | 1011 hPa | 0 mm | - | 19 W/m² | - |
| 1778068178 | 0° C | 74% | 1011 hPa | 0 mm | - | 18 W/m² | - |
| 1778067875 | 0° C | 74% | 1010.7 hPa | 0 mm | - | 16 W/m² | - |
| 1778067573 | 0° C | 74% | 1010.8 hPa | 0 mm | - | 15 W/m² | - |
| 1778067271 | 0° C | 75% | 1010.6 hPa | 0 mm | - | 13 W/m² | - |
| 1778066967 | 0° C | 74% | 1010.8 hPa | 0 mm | - | 12 W/m² | - |
| 1778066665 | 0° C | 75% | 1010.6 hPa | 0 mm | - | 11 W/m² | - |
| 1778066362 | 0° C | 76% | 1010.8 hPa | 0 mm | - | 9 W/m² | - |
| 1778066060 | 0° C | 75% | 1010.6 hPa | 0 mm | - | 8 W/m² | - |
| 1778065757 | 0° C | 76% | 1010.6 hPa | 0 mm | - | 7 W/m² | - |
| 1778065455 | 0° C | 76% | 1010.4 hPa | 0 mm | - | 5 W/m² | - |
| 1778065151 | 0° C | 76% | 1010.5 hPa | 0 mm | - | 4 W/m² | - |
| 1778064847 | -0.56° C | 76% | 1010.5 hPa | 0 mm | - | 3 W/m² | - |
| 1778064544 | -0.56° C | 76% | 1010.4 hPa | 0 mm | - | 3 W/m² | - |
| 1778064243 | -0.56° C | 77% | 1010.6 hPa | 0 mm | - | 2 W/m² | - |
| 1778063940 | -0.56° C | 77% | 1010.5 hPa | 0 mm | - | 1 W/m² | - |
| 1778063637 | -0.56° C | 77% | 1010.7 hPa | 0 mm | - | 1 W/m² | - |
* Rain latest hour (hover to see other rain measurements)
** Current wind speed in m/s (hover to see current wind gust speed)